User: anonymous   Login
Location: Caltech
(34.1382°N, 118.1253°W)
Time: 18:33:31
(UTC-07:00)
Language:

NOSS 3-2 (A) - Orbit

View from above orbital plane
View from above orbital plane
View from above satellite
View from above satellite

Ground track
Ground track

The orbit data is extracted from the following two-line orbital elements,

1 28095U 03054A   18162.92161404 0.00000020  00000-0  25667-4 0    06
2 28095  63.4196 113.5734 0337500 358.0713   1.9287 13.41364690    08
Epoch (UTC): 11 June 2018 22:07:07
Eccentricity: 0.0337500
inclination: 63.4196°
perigee height: 851 km
apogee height: 1357 km
right ascension of ascending node: 113.5734°
argument of perigee: 358.0713°
revolutions per day: 13.41364690
mean anomaly at epoch: 1.9287°
orbit number at epoch: 0

The dashed part of the orbit path shows where the satellite is in the earth's shadow,  

DLR